This demonstration page uses our WeatherBlox Daily Observations layout. Learn more.

Left ArrowRight Arrow

53.62937, 11.41316

Hourly Observations for March 11, 2019

Temp ( °F °C ) Dew Point ( °F °C ) Humidity (%) Winds ( mph kmh ) Pressure ( in mb ) Visibility ( mi km ) Precip ( " mm )
6:50 am 06:50 Mostly Cloudy with Light Rain 34 1 32 0 93 93 WSW 16 26 29.65 1004 30 48 N/A
7:20 am 07:20 Mostly Cloudy with Light Snow 32 0 32 0 100 100 WSW 16 26 29.65 1004 1 1 N/A
7:50 am 07:50 Mostly Cloudy with Light Snow 32 0 32 0 100 100 WSW 13 20 29.68 1005 2 4 N/A
8:20 am 08:20 Mostly Cloudy with Light Snow 32 0 32 0 100 100 W 14 22 29.68 1005 2 3 N/A
8:50 am 08:50 Mostly Cloudy with Light Snow 34 1 32 0 93 93 W 12 19 29.68 1005 30 48 N/A
9:20 am 09:20 Mostly Cloudy with Light Snow 32 0 32 0 100 100 W 8 13 29.71 1006 4 6 N/A
9:50 am 09:50 Mostly Cloudy with Light Snow 32 0 32 0 100 100 W 8 13 29.71 1006 3 5 N/A
10:20 am 10:20 Mostly Cloudy with Light Snow 34 1 32 0 93 93 W 9 15 29.71 1006 30 48 N/A
10:50 am 10:50 Mostly Cloudy 34 1 34 1 100 100 W 9 15 29.74 1007 30 48 N/A
11:20 am 11:20 Mostly Cloudy 36 2 34 1 93 93 WSW 9 15 29.74 1007 30 48 N/A
11:50 am 11:50 Mostly Cloudy 36 2 34 1 93 93 W 10 17 29.74 1007 30 48 N/A
12:20 pm 12:20 Mostly Cloudy 37 3 36 2 93 93 W 10 17 29.74 1007 30 48 N/A
12:50 pm 12:50 Mostly Cloudy 39 4 36 2 87 87 W 13 20 29.77 1008 30 48 N/A
1:20 pm 13:20 Mostly Cloudy 41 5 36 2 81 81 W 10 17 29.77 1008 30 48 N/A
1:50 pm 13:50 Mostly Cloudy 41 5 36 2 81 81 W 9 15 29.77 1008 30 48 N/A
2:20 pm 14:20 Mostly Cloudy with Light Rain 39 4 37 3 93 93 W 7 11 29.80 1009 30 48 N/A
2:50 pm 14:50 Mostly Cloudy with Light Rain 39 4 37 3 93 93 W 6 9 29.80 1009 30 48 N/A
3:20 pm 15:20 Mostly Cloudy with Light Rain 41 5 37 3 87 87 WNW 5 7 29.80 1009 30 48 N/A
3:50 pm 15:50 Mostly Cloudy 41 5 37 3 87 87 W 7 11 29.83 1010 30 48 N/A
4:20 pm 16:20 Mostly Cloudy 41 5 36 2 81 81 W 6 9 29.83 1010 30 48 N/A
4:50 pm 16:50 Mostly Cloudy with Light Rain 39 4 37 3 93 93 W 7 11 29.86 1011 30 48 N/A
5:20 pm 17:20 Partly Cloudy 41 5 37 3 87 87 W 5 7 29.86 1011 30 48 N/A
5:50 pm 17:50 Mostly Cloudy 39 4 37 3 93 93 W 5 7 29.89 1012 30 48 N/A
6:20 pm 18:20 Partly Cloudy 39 4 37 3 93 93 VRB 2 4 29.89 1012 30 48 N/A
6:50 pm 18:50 Mostly Clear 37 3 27 -3 65 65 W 2 4 29.92 1013 30 48 N/A

Powered by AerisWeather